GFSGL_850_thetae_057.txt.gz
Theta_e
347 345 345 345 345 344 341 337 335 333 335 338 341 343 347 348 350 350 349 348 348 347 342 341 338 332 333 337 338 338 337 337 337 333 335 336 337 338 339 339 337 336 336
346 346 346 346 345 344 342 339 337 334 334 335 340 343 346 349 352 353 352 350 350 349 347 341 340 341 332 328 336 337 337 337 338 334 330 330 332 336 338 337 337 337 336
346 346 346 346 345 344 343 340 337 335 335 335 337 341 343 344 349 351 351 351 351 349 349 346 334 336 341 336 331 329 332 336 338 338 336 336 336 334 334 335 335 337 337
346 346 346 346 344 343 343 342 338 334 334 332 333 336 340 344 347 349 349 349 349 349 349 348 343 333 330 336 338 337 335 333 332 336 336 333 334 334 336 335 334 333 336
346 346 346 344 343 343 342 341 339 337 334 332 331 332 333 338 342 347 349 348 347 346 347 346 345 344 342 337 331 331 336 338 341 342 340 336 333 333 333 334 336 336 335
346 346 345 344 342 341 341 339 339 337 335 334 333 333 334 333 333 334 340 347 348 347 347 346 346 346 345 345 345 343 339 335 336 339 338 341 340 341 339 335 336 338 338
346 346 346 345 344 340 338 338 338 337 338 338 337 335 333 334 336 337 336 338 341 345 346 345 345 345 345 346 346 347 347 347 345 344 342 340 339 338 337 340 343 340 338
347 347 346 346 346 345 343 341 339 339 339 338 337 337 337 337 336 337 340 341 342 342 343 344 345 344 345 346 348 348 347 348 348 349 349 349 350 350 350 349 349 348 345
347 347 347 347 347 346 346 346 346 345 344 343 342 342 344 345 345 344 344 344 343 343 345 346 346 346 347 348 349 349 349 349 351 353 353 354 354 355 355 355 353 347 343
347 347 347 347 347 347 347 348 348 349 350 352 353 353 354 354 354 355 355 355 354 354 354 353 353 353 354 354 354 354 356 357 357 357 356 355 355 354 354 354 353 348 347
347 347 347 347 348 348 348 349 349 350 351 352 353 354 354 355 356 357 357 357 356 356 356 356 356 356 357 358 358 359 358 356 356 358 357 356 355 354 353 352 352 350 350
349 349 349 349 349 349 349 350 350 351 352 353 354 355 356 356 357 358 358 359 359 359 357 357 357 358 358 358 358 357 356 359 359 359 356 356 356 355 355 355 353 353 350
349 354 355 355 355 355 355 354 354 354 355 355 356 356 356 356 357 358 359 359 360 360 359 358 358 359 361 361 358 359 360 357 360 358 355 356 355 356 355 352 351 350 347
347 349 352 355 357 358 358 357 357 358 356 356 354 351 353 354 356 358 359 360 361 361 361 360 359 359 362 363 361 358 356 356 355 354 354 356 355 353 352 350 345 345 344
349 347 347 347 345 344 348 354 356 356 356 355 353 353 353 353 352 356 360 362 361 359 360 360 361 362 362 360 357 356 355 355 356 361 356 356 352 349 344 342 344 338 340
344 347 347 349 349 345 341 339 341 344 349 353 355 355 354 354 358 359 360 362 360 362 361 359 361 359 359 358 357 357 356 356 356 353 351 348 345 338 338 340 338 336 337
337 338 341 341 345 349 349 346 347 349 350 353 357 358 356 356 354 358 360 359 360 360 362 359 361 361 359 358 356 355 354 354 348 345 339 335 336 337 334 334 332 332 335
337 336 345 357 357 356 354 353 355 360 360 359 359 358 358 359 358 358 358 358 361 357 357 359 359 357 356 354 353 351 343 337 335 334 335 336 338 337 334 335 336 335 334
328 336 333 334 347 353 357 357 359 361 363 362 360 360 360 361 358 363 360 361 359 357 355 354 354 352 350 343 336 335 334 333 332 333 334 335 340 337 334 335 334 335 334
322 329 339 343 346 349 350 353 358 360 361 362 363 357 355 356 359 361 359 357 356 354 352 351 345 337 335 334 334 333 331 331 331 331 332 336 335 334 334 334 333 332 331
323 333 342 340 343 346 349 351 354 358 359 360 362 359 355 354 355 355 355 352 349 346 340 336 335 334 333 333 331 331 330 331 331 331 333 334 334 333 334 334 333 332 332
324 331 341 345 342 343 340 348 350 354 359 359 361 356 353 352 347 343 339 337 335 334 333 333 333 333 331 330 330 331 331 331 331 331 333 334 333 332 331 334 333 333 332
321 330 337 341 339 341 344 343 353 353 358 358 357 349 345 341 339 338 337 334 333 332 332 332 333 333 332 331 332 332 332 332 331 330 330 332 331 331 331 331 331 331 331
321 333 329 334 344 345 345 345 353 355 355 353 347 342 342 339 339 337 335 333 333 333 334 335 336 336 333 332 332 332 332 332 331 332 331 332 332 332 332 331 330 330 331
330 329 334 343 344 345 346 348 346 344 343 343 341 340 338 338 335 334 332 332 333 332 331 333 334 334 333 333 332 331 331 332 331 331 332 332 331 331 331 330 329 328 327
334 337 337 337 336 337 335 336 338 337 334 336 336 336 335 334 334 333 333 333 333 332 332 332 331 330 330 330 330 329 331 329 328 328 327 329 331 331 329 328 328 329 328

GFSGL_850_thetae_060.txt.gz
Theta_e
346 346 346 346 345 344 343 344 343 338 335 333 337 340 342 344 345 345 348 348 347 346 345 341 338 340 335 337 338 338 338 338 339 332 332 331 331 332 332 335 337 338 337
348 347 346 347 346 345 344 344 344 341 337 333 334 337 339 343 346 347 348 350 349 349 348 347 343 338 337 336 336 331 334 337 338 336 333 333 334 335 334 332 331 335 336
348 348 348 347 347 346 345 345 345 343 338 336 334 334 337 341 345 347 350 352 351 351 351 350 347 346 337 335 338 337 332 330 331 333 331 330 330 330 333 334 335 335 333
346 348 348 348 347 345 345 345 345 344 341 337 334 332 332 336 341 344 347 350 350 350 350 348 347 345 344 336 329 331 336 337 337 338 337 333 332 331 332 332 331 331 332
346 347 346 346 346 345 345 345 345 344 342 339 336 333 331 332 334 336 338 342 345 346 348 346 343 342 341 342 343 339 334 333 334 335 337 337 336 335 335 335 337 336 337
346 346 345 346 346 345 344 344 344 343 342 340 337 334 332 330 329 330 333 336 338 343 345 344 343 343 344 344 344 345 345 345 346 345 344 342 341 341 341 341 341 342 343
346 346 346 346 345 345 344 342 341 342 342 339 337 335 332 330 330 330 331 332 333 334 336 339 342 344 344 345 344 345 346 348 348 349 349 348 348 348 349 350 350 351 352
346 346 346 346 346 345 344 343 341 341 341 339 338 337 336 334 333 332 332 333 334 335 335 336 337 339 340 341 342 344 344 345 346 348 350 350 353 355 356 356 355 354 352
346 346 344 345 346 345 345 344 342 341 339 337 337 337 337 337 337 338 340 341 339 338 339 340 340 340 341 343 345 346 345 345 345 348 351 353 355 356 356 356 355 354 353
346 345 346 346 346 346 346 346 345 345 345 344 344 343 344 344 345 346 349 350 351 350 350 349 349 349 350 352 352 353 352 352 354 356 355 355 354 355 356 355 353 352 352
346 346 346 346 347 346 347 347 347 347 347 348 348 350 351 352 353 354 355 356 356 357 356 356 355 356 356 357 357 356 356 356 355 355 354 355 354 359 354 354 353 353 351
346 346 347 347 346 347 347 347 348 348 348 349 350 351 351 352 353 354 355 356 357 358 357 357 357 358 358 358 358 359 358 356 356 355 355 354 355 354 352 353 352 351 350
347 347 347 347 347 347 348 348 349 349 350 350 351 352 353 353 353 354 354 355 357 359 358 359 360 360 360 360 359 358 358 356 357 357 356 355 354 354 353 350 350 349 344
348 349 350 351 350 350 350 352 352 352 353 353 354 354 354 353 352 351 350 352 355 358 360 360 360 360 363 359 360 358 361 361 355 354 354 354 353 353 351 350 346 339 341
353 354 355 355 355 356 357 357 357 356 356 355 355 356 356 354 352 353 355 354 355 358 360 361 360 361 360 359 358 358 359 356 356 355 355 354 353 350 348 345 336 339 337
346 347 349 350 351 349 346 343 344 349 353 354 355 355 354 354 355 355 355 355 358 360 361 360 358 357 357 357 358 357 358 357 357 356 355 356 352 345 338 336 335 334 334
337 337 342 346 347 346 348 349 346 347 345 344 345 347 349 352 358 358 355 355 357 357 357 357 357 357 357 358 358 359 359 358 356 354 352 343 337 335 336 334 333 334 334
330 336 335 345 351 352 353 352 351 350 347 349 356 358 357 358 359 359 357 356 358 362 358 356 355 357 358 360 360 357 356 354 353 345 337 334 335 336 337 335 335 336 334
318 325 334 332 331 335 343 350 352 351 351 354 358 358 358 359 360 360 361 360 361 358 355 357 356 355 356 356 355 354 352 347 338 334 333 333 335 333 337 334 334 334 333
316 317 322 327 332 336 340 344 347 352 355 357 358 359 361 360 359 355 358 356 358 360 357 354 354 353 352 352 350 344 336 334 333 331 331 332 336 336 333 334 334 331 331
313 315 317 327 332 334 334 344 347 350 353 355 356 358 359 361 353 352 352 356 358 356 355 354 351 348 344 338 335 334 333 331 330 331 331 332 335 335 333 333 334 332 331
312 313 314 319 323 336 338 335 332 336 346 352 356 358 358 359 357 351 351 351 351 348 347 344 341 337 335 334 333 332 331 331 331 331 331 333 333 333 332 333 334 333 331
314 313 313 315 318 330 340 334 334 332 329 337 346 356 358 358 356 352 349 347 345 345 341 336 335 334 333 332 330 330 331 332 331 331 331 331 332 332 331 330 333 333 331
321 317 316 317 319 333 338 337 342 343 343 346 349 353 354 353 351 345 341 338 339 336 335 333 332 332 332 333 331 331 332 332 331 331 330 330 331 331 331 331 330 331 331
329 330 328 326 323 327 337 340 343 345 345 346 345 346 345 342 340 338 338 337 335 334 332 331 331 332 333 334 334 332 332 331 332 332 332 331 332 332 331 331 331 331 330
324 327 328 330 332 333 334 335 339 340 340 341 340 336 336 336 336 334 334 334 334 333 333 332 331 331 332 332 332 331 330 331 330 329 329 330 331 332 331 330 330 330 329

GFSGL_850_thetae_063.txt.gz
Theta_e
343 342 342 342 343 343 344 343 343 343 344 340 338 334 339 342 343 344 344 346 348 347 344 344 343 341 340 342 338 336 338 338 338 338 335 331 330 331 332 331 331 330 332
345 344 343 343 344 344 345 344 344 343 344 343 338 333 337 340 343 344 345 346 347 347 347 348 348 348 345 339 337 337 336 335 332 328 328 329 328 328 329 330 332 332 333
346 346 345 344 344 345 346 345 345 344 344 343 338 334 332 334 338 343 345 347 348 349 347 348 345 349 348 347 342 337 336 336 337 336 332 333 332 332 333 332 332 332 332
346 346 347 346 345 346 346 346 346 344 344 344 340 335 332 331 335 340 344 346 347 349 349 348 349 348 345 342 344 342 339 334 332 331 332 335 341 334 332 329 331 332 331
345 346 346 346 347 347 347 346 346 345 345 344 343 339 335 332 331 333 340 343 344 346 347 347 346 345 343 340 343 342 344 345 345 348 348 348 347 347 345 345 347 347 346
343 344 345 346 346 347 347 347 346 345 345 345 344 342 338 335 330 329 331 335 336 337 338 339 339 340 341 341 342 343 346 346 346 347 351 351 349 350 351 351 351 351 351
343 344 345 345 345 346 346 346 345 344 344 345 344 343 340 336 332 330 329 330 331 331 332 333 333 335 336 338 339 341 343 344 347 346 346 348 349 350 351 353 354 355 354
343 344 344 344 344 345 345 345 345 344 342 342 343 342 340 336 334 333 332 332 331 330 330 331 331 332 333 334 335 337 338 339 340 341 343 345 349 352 354 355 356 356 354
344 344 344 345 345 345 345 344 344 344 343 340 340 340 339 335 334 334 335 335 334 333 332 332 332 333 334 336 337 339 339 340 341 341 342 346 352 355 356 356 355 356 355
344 344 345 345 345 345 345 345 343 343 342 340 338 337 336 334 335 336 338 340 340 338 337 337 337 337 338 339 341 343 343 345 348 351 354 356 355 354 354 354 354 354 353
344 345 345 345 344 344 345 345 345 345 344 343 343 342 342 342 342 342 343 344 344 345 348 351 353 353 353 354 354 355 355 355 356 357 358 356 355 354 355 353 354 350 349
345 345 346 345 345 346 346 346 346 346 346 346 346 347 347 348 349 351 352 353 354 354 355 356 356 357 357 358 358 358 357 357 358 358 357 357 356 354 354 353 354 355 350
346 346 346 346 346 346 346 346 347 347 348 348 349 349 350 350 350 351 352 354 355 356 356 357 358 358 359 360 360 360 358 358 360 361 359 355 356 354 354 354 352 351 348
345 345 346 346 346 347 347 347 348 348 349 352 354 353 351 351 352 352 351 352 353 354 354 355 358 359 360 360 361 359 358 357 356 357 356 359 356 357 355 353 352 348 340
345 345 346 346 346 347 348 348 349 349 351 352 352 353 354 353 352 352 354 352 351 349 352 356 359 360 360 361 361 359 357 357 357 357 358 357 358 359 355 352 349 337 336
356 355 352 352 351 351 353 353 353 354 355 355 355 355 355 354 356 355 355 354 354 354 355 356 356 360 359 358 357 357 357 357 357 359 357 356 356 355 352 349 336 335 336
344 348 346 346 352 355 349 352 349 350 352 353 354 355 355 354 354 354 356 357 358 358 359 358 359 358 356 355 356 356 357 358 359 359 359 358 355 353 343 335 335 334 335
330 339 344 339 345 348 344 352 349 351 348 345 342 341 343 345 346 351 358 360 358 356 357 354 355 356 356 356 356 356 358 361 360 358 356 354 349 339 334 335 337 335 334
314 320 335 339 340 343 347 348 350 350 350 350 348 348 349 352 354 356 358 360 360 360 355 353 356 354 355 356 355 358 358 357 355 354 352 347 337 334 334 335 335 334 333
313 313 315 324 334 343 345 344 344 342 343 346 351 354 354 356 356 357 359 359 359 362 362 357 360 358 358 355 355 354 353 352 352 347 338 335 333 332 334 335 334 332 332
313 314 314 316 320 332 340 341 340 342 346 350 352 354 356 358 360 359 357 354 352 355 356 354 357 356 355 353 352 351 349 345 338 334 333 332 331 331 335 334 334 333 330
314 313 313 313 315 322 331 333 336 338 325 327 341 351 355 358 359 359 358 353 353 352 350 350 351 350 350 349 347 343 339 336 334 332 331 331 331 332 336 333 334 334 332
315 314 313 313 313 314 320 327 340 342 322 325 329 327 337 352 356 353 355 354 352 351 351 348 346 346 346 344 341 337 334 333 331 330 331 331 331 333 334 333 334 334 332
318 318 317 323 326 328 330 334 340 341 336 327 328 330 339 347 351 353 352 352 350 347 342 340 340 338 337 336 335 334 332 331 331 331 331 331 332 332 332 332 332 332 331
321 322 326 328 327 325 324 324 326 337 339 339 340 341 341 345 348 347 346 341 338 336 335 334 334 333 333 333 332 332 331 330 331 332 331 331 331 331 332 332 331 332 332
319 320 322 326 326 328 329 330 330 334 336 336 336 339 338 341 341 341 339 336 335 336 334 333 333 332 332 331 331 331 333 333 332 331 332 332 332 332 332 332 331 331 332

GFSGL_850_thetae_069.txt.gz
Theta_e
354 353 347 342 341 340 340 346 351 350 351 348 352 352 350 351 351 352 350 352 355 350 354 354 354 349 352 350 350 350 347 346 346 345 344 343 343 344 339 338 339 343 347
356 354 350 346 344 345 332 347 351 353 349 351 345 349 346 347 351 353 353 351 354 354 353 351 353 352 351 347 351 350 350 350 350 348 349 350 349 348 348 348 349 350 349
356 355 354 352 346 341 340 337 348 351 346 344 344 347 345 342 346 350 353 354 353 353 352 352 352 354 353 354 356 354 354 354 355 355 354 351 349 348 347 347 348 351 350
354 354 354 354 351 345 345 343 340 347 341 341 342 344 344 343 347 349 352 352 353 352 351 352 353 353 354 355 355 354 355 354 353 353 352 351 349 348 348 349 349 348 349
353 353 353 355 354 353 348 348 341 341 339 340 342 344 343 348 349 343 346 350 348 351 351 352 353 354 354 355 355 354 356 356 355 353 351 349 348 347 351 352 350 352 353
353 353 353 354 355 355 348 343 340 339 340 341 344 344 343 349 348 344 342 342 347 349 349 350 349 352 355 352 347 343 343 345 347 352 349 348 348 350 352 354 354 353 354
354 355 354 356 356 353 346 341 339 340 341 343 344 345 344 341 345 345 342 339 343 340 338 339 344 349 349 347 344 340 336 335 337 339 340 341 341 341 344 347 353 354 357
355 357 356 357 357 355 349 344 343 342 343 344 345 345 345 343 339 339 340 339 336 333 335 335 331 331 337 344 347 349 348 336 333 336 339 342 344 345 351 356 355 356 357
357 356 357 357 359 358 353 346 346 345 344 345 345 345 345 345 343 339 340 341 339 334 331 329 329 329 327 327 328 329 329 330 334 339 343 347 350 352 355 357 360 358 357
358 357 358 358 359 359 353 351 347 346 345 348 348 346 345 345 343 342 340 343 348 344 336 330 328 328 328 329 330 331 332 332 337 342 345 351 356 360 361 360 359 359 357
357 359 359 358 359 359 359 355 348 346 355 350 355 353 349 346 342 339 339 340 341 348 347 345 347 344 342 341 340 339 337 340 343 349 357 361 361 361 360 361 359 360 358
357 358 359 359 358 360 358 358 356 350 351 356 351 357 358 351 342 336 336 335 335 337 342 344 346 347 348 350 353 354 355 355 355 356 357 359 360 361 361 357 359 358 357
357 358 358 359 359 358 359 358 360 358 358 358 359 358 356 354 353 343 336 333 334 336 336 343 346 348 350 353 356 358 359 357 357 358 359 360 359 359 358 359 359 357 358
356 358 358 358 359 359 362 362 360 360 360 357 357 356 355 352 352 355 355 340 336 338 340 341 341 344 348 353 359 358 357 357 358 359 360 360 360 361 360 358 358 358 358
357 358 359 359 359 358 359 360 360 359 358 358 355 354 352 353 353 355 358 361 356 348 348 348 350 351 352 354 359 358 356 360 362 360 360 360 359 358 357 357 359 358 355
358 359 361 360 361 360 359 360 360 359 358 358 358 357 360 359 359 360 360 361 365 365 361 356 359 360 361 362 361 350 351 357 359 362 360 359 358 356 356 358 359 359 356
358 360 360 360 361 360 360 360 360 360 359 358 359 360 359 362 360 361 362 361 361 364 365 364 362 362 363 359 355 354 360 365 359 357 356 356 356 355 358 359 357 356 354
357 359 359 358 360 359 360 360 360 359 358 358 355 355 357 359 359 359 358 359 361 360 360 362 362 364 364 362 363 362 362 361 362 360 357 356 357 357 358 359 358 355 354
343 355 357 360 359 360 361 361 359 357 355 352 350 344 347 349 349 353 353 353 357 361 362 362 362 362 362 361 363 360 361 360 360 356 355 355 355 358 357 356 355 353 349
326 341 346 349 351 352 354 351 348 343 342 344 348 346 344 351 350 342 339 342 345 352 357 357 358 360 358 362 361 358 358 357 355 355 355 354 354 354 353 352 352 349 345
327 323 328 336 344 346 348 350 345 344 340 344 346 346 339 340 356 352 354 353 352 353 359 358 359 359 361 358 359 359 357 357 356 354 355 352 350 351 353 350 347 345 343
326 326 328 328 327 329 337 345 342 345 344 345 345 348 351 353 353 353 354 355 357 357 359 358 360 363 360 358 356 355 353 354 352 351 349 349 348 347 346 345 345 343 343
321 326 330 331 331 330 331 337 342 338 338 344 345 345 344 345 348 354 355 357 354 357 357 355 354 354 354 353 352 350 350 350 348 346 345 344 344 343 342 342 342 341 341
317 317 322 327 330 331 332 334 334 337 339 340 344 343 342 343 344 348 353 354 354 352 351 347 344 348 348 348 344 342 344 345 345 344 342 342 341 340 339 339 338 338 337
317 317 318 318 321 328 329 330 330 330 333 336 342 342 340 339 338 336 336 340 344 344 345 345 345 346 346 346 345 345 344 343 342 341 340 339 337 336 337 337 335 335 334
313 315 316 318 319 320 322 323 324 325 325 327 327 326 327 329 332 333 334 334 335 336 337 338 338 338 339 339 339 340 341 339 337 335 334 332 331 331 332 333 334 333 334

GFSGL_850_thetae_072.txt.gz
Theta_e
350 349 343 334 330 329 335 343 345 350 350 348 351 349 349 346 351 350 346 352 352 348 348 353 352 345 351 352 351 350 349 347 346 345 345 344 345 344 343 344 348 348 347
353 352 350 346 338 331 330 335 343 343 351 347 349 352 351 346 347 349 343 351 355 354 346 354 356 354 342 350 351 351 352 352 351 349 345 342 345 351 351 348 347 347 347
358 357 355 352 351 345 336 332 335 340 340 346 346 343 346 344 344 346 344 339 352 352 353 349 347 349 350 351 347 350 349 354 355 355 356 356 354 348 350 349 348 348 350
358 358 357 355 353 351 347 336 344 343 337 339 341 340 340 341 342 343 343 341 342 353 354 352 349 349 350 351 350 350 353 352 351 352 351 350 351 350 350 352 353 354 351
355 358 358 356 355 354 353 345 341 346 340 337 336 337 339 341 341 343 342 344 346 347 351 352 351 351 352 351 351 351 353 354 356 357 357 356 352 349 346 345 345 348 353
355 356 358 358 358 356 355 353 346 338 339 342 335 335 337 339 340 349 348 342 349 348 344 346 352 352 353 352 353 354 351 354 355 351 345 343 339 338 341 342 343 345 348
354 356 357 357 358 357 356 355 355 350 345 343 339 335 337 338 339 345 348 347 345 342 345 342 343 344 344 347 347 347 346 345 344 342 341 336 337 338 344 344 347 353 355
355 356 356 356 356 358 357 356 355 356 351 345 340 336 338 338 338 340 343 348 347 343 340 340 341 337 342 350 351 351 348 347 343 345 347 342 341 341 345 350 352 354 355
358 356 357 356 356 357 357 356 356 356 355 348 340 337 339 340 341 339 342 345 346 344 340 338 339 338 331 330 333 334 335 335 333 334 334 337 345 350 352 352 355 356 358
357 359 358 358 358 359 358 356 356 356 350 346 340 338 340 342 342 343 344 346 347 344 340 336 334 332 331 332 333 333 332 328 330 331 333 337 339 343 353 357 359 359 359
358 358 359 360 359 360 360 359 358 357 355 351 344 344 344 343 343 344 344 345 346 345 342 338 333 330 333 340 343 344 342 345 347 350 351 352 352 358 361 360 359 361 359
361 359 360 359 361 361 361 360 359 359 358 359 352 352 351 346 346 344 343 342 343 344 342 342 344 344 346 346 346 347 349 353 355 357 357 356 356 357 359 359 359 359 359
357 361 360 361 361 362 362 361 360 360 360 360 360 355 358 357 351 348 345 345 343 342 338 338 338 342 348 348 348 350 352 354 356 358 359 357 357 358 359 358 357 358 359
357 359 359 362 362 361 361 361 360 360 361 362 361 362 357 358 361 359 353 350 345 341 338 336 336 337 338 339 342 343 344 348 355 358 357 357 358 360 359 359 360 358 356
359 359 361 362 361 361 360 363 361 361 361 360 361 357 361 360 352 353 357 354 351 352 349 343 338 337 338 340 342 345 348 353 356 355 351 357 360 360 359 359 357 355 356
362 361 362 362 362 361 360 363 362 360 362 361 356 361 357 357 356 354 350 352 353 357 362 362 358 353 350 351 354 357 360 361 358 355 360 359 360 360 358 358 357 355 357
359 360 361 360 362 361 361 363 362 363 362 360 361 356 358 355 353 354 356 355 356 362 364 364 364 362 359 360 362 364 363 359 353 357 359 359 359 356 355 355 354 355 356
357 359 360 361 359 362 361 361 362 360 360 360 359 358 358 357 360 360 360 360 360 361 361 362 364 364 364 364 363 362 361 361 360 361 361 360 358 355 356 355 356 356 357
351 356 358 359 360 362 361 360 362 361 360 359 359 358 357 358 359 358 358 359 360 360 360 361 360 359 358 358 361 362 363 362 359 359 360 361 360 359 353 354 355 355 356
337 345 348 353 357 358 359 360 361 357 357 359 358 356 353 351 352 350 350 354 356 356 355 361 363 363 363 362 362 361 360 358 358 359 356 361 361 361 358 355 353 351 351
328 330 340 338 338 347 349 352 350 349 348 345 344 344 343 345 352 354 347 346 350 352 350 349 350 357 359 358 357 358 356 356 357 357 354 353 353 353 351 350 351 352 349
327 329 329 330 331 330 337 342 347 346 344 346 350 346 348 349 350 349 347 343 338 345 356 358 358 359 357 357 357 356 356 357 355 354 352 352 350 349 349 349 347 346 346
327 328 331 330 330 331 336 337 341 340 339 339 338 340 343 346 350 350 350 349 349 353 355 355 358 358 356 357 355 354 353 352 352 351 350 349 348 346 345 345 344 344 343
321 325 327 329 330 331 334 337 337 339 339 339 341 341 342 343 343 347 347 349 350 349 350 352 354 354 353 352 352 351 351 349 349 348 347 347 345 344 343 342 341 341 340
316 317 319 324 325 326 327 329 333 330 332 331 332 334 338 339 340 335 337 338 341 343 345 345 348 346 347 346 345 345 345 345 345 345 344 343 342 342 341 341 339 337 338
313 315 316 317 319 320 320 321 322 322 322 322 323 324 326 327 328 327 329 330 331 332 333 334 335 337 336 335 335 337 338 339 339 338 338 338 337 336 336 334 335 336 334

GFSGL_850_thetae_075.txt.gz
Theta_e
346 344 334 331 332 332 343 345 347 346 348 347 350 349 348 347 340 338 341 347 346 346 344 341 339 341 342 349 348 348 348 346 344 337 339 342 343 344 344 343 347 347 347
347 347 345 333 329 329 332 345 342 346 344 346 351 351 349 349 345 339 340 342 352 352 350 349 349 349 344 348 352 352 352 352 351 350 348 349 352 347 345 348 349 350 349
349 348 348 347 338 329 328 329 343 336 341 351 353 351 351 350 343 337 335 336 348 351 352 351 349 352 352 344 346 350 350 350 350 350 353 353 347 348 351 352 353 353 351
351 351 350 350 349 345 333 329 329 330 333 343 351 349 347 349 347 341 338 334 337 349 347 347 347 346 346 344 345 344 346 349 350 355 354 349 352 352 353 353 346 341 337
354 353 353 352 351 351 349 341 333 331 330 331 337 348 343 342 341 339 340 338 333 334 343 345 349 347 345 345 347 349 350 349 348 350 353 355 355 355 344 337 336 337 338
356 356 356 355 354 354 353 351 346 339 335 333 335 334 336 337 338 337 338 339 338 335 334 334 342 347 347 345 346 348 350 353 353 349 351 354 342 338 336 338 340 342 346
355 357 357 356 355 356 354 354 352 349 343 337 337 339 333 336 336 336 337 339 340 341 337 334 335 339 344 343 348 352 350 348 347 346 346 340 339 337 343 340 341 347 349
356 356 356 356 356 356 355 354 354 353 349 345 344 340 333 332 333 335 338 342 343 344 343 341 338 333 332 335 338 347 350 350 348 346 345 341 340 340 339 342 348 347 348
355 355 355 355 356 356 356 354 354 354 353 351 347 342 340 340 336 334 338 343 347 344 343 344 343 339 333 334 337 339 342 343 337 338 340 340 337 335 337 343 343 352 356
357 354 354 355 356 356 355 354 354 353 353 353 352 351 348 345 341 335 335 341 345 344 343 342 342 340 339 338 339 337 336 331 332 333 335 337 342 344 347 348 355 358 359
358 357 355 355 356 356 355 355 354 354 354 354 353 353 351 345 339 334 335 339 342 344 345 343 341 339 338 338 337 338 338 341 346 348 350 351 351 353 354 355 356 359 359
353 358 357 357 357 357 356 356 356 355 355 355 355 355 355 348 341 337 337 340 341 344 343 341 341 340 340 340 339 345 346 347 347 349 351 352 352 356 357 356 357 359 359
350 359 359 359 359 359 358 357 357 357 357 357 357 356 355 352 346 341 339 341 342 346 344 343 344 344 345 345 348 348 348 348 348 349 351 349 353 358 357 358 359 359 358
356 351 362 359 360 360 361 360 359 359 359 358 359 359 358 356 355 347 344 343 345 349 349 349 348 347 346 344 343 345 344 344 344 346 346 350 355 355 357 358 359 359 360
358 356 357 362 359 361 360 362 361 360 360 359 359 360 360 358 353 351 345 343 344 346 347 349 351 350 346 342 340 339 339 340 340 342 347 353 356 355 357 359 360 360 360
364 366 359 361 361 361 361 362 362 361 361 360 359 358 358 359 358 356 353 349 346 350 354 353 354 355 355 348 341 338 340 341 346 353 358 358 353 357 362 365 364 365 358
359 363 363 362 362 361 362 361 361 362 362 362 361 360 360 360 359 359 358 355 351 352 356 355 355 359 362 360 356 353 354 357 361 360 360 354 354 357 359 357 356 354 353
349 357 361 361 362 363 362 360 359 359 361 363 360 362 360 359 360 360 356 356 356 356 354 354 358 360 361 361 360 359 361 363 362 361 358 357 360 361 359 358 352 348 351
341 348 354 357 358 359 361 361 359 359 360 361 361 362 361 362 359 358 359 358 356 357 357 356 358 359 359 360 363 363 363 363 362 362 360 359 358 358 358 358 354 350 347
332 339 343 350 355 358 360 360 357 358 360 358 359 357 358 357 357 357 356 356 355 354 354 353 354 354 355 356 357 358 357 362 360 359 359 359 357 355 356 354 354 353 351
328 332 333 341 348 351 355 358 358 357 357 356 354 354 353 352 352 351 351 352 351 350 352 353 351 350 352 353 351 352 353 353 356 358 356 357 353 351 352 350 350 350 349
328 330 332 332 336 344 350 350 347 347 349 347 346 344 346 347 349 349 346 342 344 341 346 350 345 342 340 344 345 337 338 354 355 357 356 356 353 352 350 349 347 348 348
326 328 329 331 333 337 341 342 342 343 346 347 346 347 347 347 346 346 347 347 347 346 342 343 340 334 338 341 339 340 350 352 353 351 351 352 351 350 348 347 345 345 344
321 324 325 327 330 331 331 334 339 339 338 340 342 341 340 342 338 342 342 339 343 346 345 342 338 338 340 334 332 337 348 349 350 349 348 347 347 346 347 346 345 344 342
314 317 320 320 322 324 326 329 331 330 328 331 337 333 336 336 331 333 333 333 336 337 339 340 340 342 342 341 341 342 343 343 343 344 343 343 342 342 342 343 343 342 341
311 311 313 315 314 313 315 317 318 322 324 328 328 327 325 328 329 330 328 326 327 326 327 328 328 329 330 331 331 332 332 333 334 335 335 336 336 336 336 337 337 338 337

GFSGL_850_thetae_078.txt.gz
Theta_e
345 344 343 335 330 338 344 347 349 349 351 347 349 349 349 347 346 340 338 341 340 344 346 342 335 338 346 345 347 346 347 346 344 340 341 339 341 341 340 344 347 349 350
346 345 345 343 331 330 339 346 347 349 351 350 349 348 350 349 347 345 333 338 343 344 344 345 341 333 340 344 344 349 349 349 349 348 347 343 344 347 343 348 350 351 352
347 347 346 345 339 328 329 340 345 347 348 347 347 347 349 349 348 345 335 334 336 343 348 350 348 345 347 341 342 347 351 351 351 350 349 348 348 344 347 349 349 351 339
348 348 348 347 345 338 328 328 341 345 346 346 346 345 346 349 349 348 338 334 332 333 339 346 349 348 345 344 345 342 344 346 345 348 348 347 344 343 346 345 343 336 334
349 349 348 348 347 346 342 331 327 334 345 343 343 347 350 351 349 348 347 340 336 332 331 337 339 341 343 345 344 341 342 344 344 346 344 344 345 336 337 338 341 341 334
350 350 350 349 348 348 348 347 342 330 329 338 343 339 348 351 351 349 345 341 337 336 332 330 333 337 341 340 343 342 340 342 343 345 345 343 335 339 339 342 343 338 341
352 352 351 351 350 350 350 350 349 348 340 330 329 330 332 341 346 347 344 341 339 338 337 335 331 332 332 335 337 339 344 347 349 347 347 345 346 342 345 345 344 344 344
354 354 355 354 353 353 353 353 352 351 350 345 336 333 331 331 332 334 335 338 339 338 338 338 337 333 332 333 334 336 336 337 339 346 349 348 349 343 346 345 342 340 344
353 354 355 357 356 355 355 354 354 354 352 351 346 342 338 337 335 338 337 336 339 336 337 339 340 339 336 337 338 335 333 331 331 335 338 338 337 340 343 341 341 347 350
352 352 355 356 356 355 355 354 354 355 353 350 350 349 345 341 339 341 340 337 338 336 336 338 339 340 338 338 342 340 337 329 331 332 334 336 339 341 344 349 353 355 355
340 351 352 354 355 356 355 354 354 355 355 354 350 348 349 347 345 343 342 343 344 338 335 336 337 338 339 339 340 341 338 335 336 338 344 346 348 349 351 354 357 357 356
344 342 347 353 357 356 356 355 355 356 356 355 354 352 350 348 347 348 348 347 345 343 336 335 337 338 340 342 344 344 342 341 344 346 347 346 347 348 349 354 357 355 357
348 353 351 355 356 357 357 356 356 356 356 356 355 354 353 352 350 344 342 341 340 342 339 337 339 341 343 344 344 345 344 345 348 348 347 346 346 347 351 355 354 356 358
340 347 353 356 359 359 358 357 356 357 356 356 356 355 355 355 353 350 345 341 341 343 344 344 343 346 348 349 349 348 348 348 349 348 348 346 344 345 351 355 353 357 359
340 346 349 354 355 360 360 359 358 358 357 357 356 356 356 356 355 353 350 343 340 339 340 346 351 348 349 351 350 350 349 348 345 343 343 340 341 344 352 353 357 358 357
342 349 359 359 357 360 361 360 360 360 359 359 359 359 358 357 356 356 356 356 353 352 351 354 354 353 352 349 352 351 346 342 340 340 339 339 341 352 356 356 357 356 356
339 345 353 361 363 362 361 361 360 360 361 361 361 361 360 360 358 358 358 358 359 356 357 355 357 357 356 353 354 357 360 357 354 348 347 348 354 360 356 357 357 359 359
335 341 345 354 362 363 363 362 360 359 359 361 362 361 362 362 362 361 361 361 361 360 360 359 357 354 352 352 355 359 361 358 356 357 359 360 361 358 356 357 360 360 352
331 337 342 348 356 359 360 357 355 357 356 357 358 360 359 360 361 359 359 360 358 358 356 356 355 356 356 355 356 357 359 360 360 358 359 359 358 358 356 356 355 356 353
327 330 336 342 349 354 356 356 356 356 356 352 357 358 359 359 360 358 360 358 357 356 355 353 353 354 355 353 353 354 355 356 356 359 354 351 351 351 352 353 353 353 352
327 330 333 338 345 350 352 351 354 356 359 359 355 356 359 357 358 357 358 358 357 356 354 353 353 354 353 353 353 350 349 348 348 351 346 342 339 346 352 349 352 349 349
327 330 332 335 339 343 346 350 353 357 358 357 356 357 357 354 357 357 357 355 352 351 351 351 351 352 351 348 347 345 341 337 337 336 337 338 338 336 349 348 350 348 346
324 327 329 333 337 339 341 343 347 347 351 351 348 348 348 347 350 350 349 349 349 347 345 349 349 347 344 341 339 339 343 344 344 342 344 347 348 346 343 346 348 346 343
320 324 326 330 331 331 332 336 335 340 338 345 343 344 342 340 339 341 343 342 343 342 341 341 340 340 339 340 340 336 339 342 344 345 345 347 346 345 345 343 346 346 344
317 320 320 324 326 329 326 326 325 328 328 333 330 330 326 331 330 328 331 338 336 337 337 338 338 335 336 336 335 335 334 338 337 335 340 341 343 342 341 341 340 339 339
313 314 316 317 318 319 320 321 319 317 319 324 325 329 327 326 323 328 326 322 327 325 327 329 330 330 332 326 325 325 328 328 327 326 327 330 331 331 331 332 333 333 333

GFSGL_850_thetae_084.txt.gz
Theta_e
342 343 343 342 340 335 331 332 337 343 343 345 345 347 348 345 343 344 341 340 341 343 341 339 341 342 342 341 340 343 344 346 346 345 344 342 342 344 342 341 339 343 346
344 343 344 344 342 340 332 329 334 340 342 347 345 346 347 347 347 347 346 346 343 340 339 340 339 339 339 338 337 339 343 343 345 347 347 345 345 345 341 339 337 341 335
345 344 343 344 343 343 342 331 328 336 341 347 346 346 347 346 347 348 349 349 347 344 340 341 343 345 344 343 340 339 341 343 344 344 345 345 346 344 335 337 333 331 334
345 345 344 343 344 343 343 343 333 327 336 344 345 344 346 348 347 348 348 348 348 347 339 337 339 343 344 348 347 342 344 346 347 345 342 340 341 340 339 337 332 334 331
345 345 346 345 344 343 343 343 343 338 326 336 344 342 344 347 348 348 347 347 347 347 342 337 335 334 335 342 347 346 345 345 343 342 340 338 336 336 336 336 340 339 331
345 346 346 346 346 345 344 343 343 344 341 327 336 342 340 341 342 344 345 345 346 346 346 346 345 341 339 335 333 337 338 339 339 340 339 338 335 335 336 339 339 341 339
347 347 347 347 346 346 346 345 344 344 344 343 328 330 338 339 337 337 340 340 343 345 346 344 342 341 341 339 338 336 333 333 335 337 337 334 335 335 335 337 339 338 336
345 347 348 348 347 347 347 347 347 346 346 346 344 333 327 329 333 336 336 338 338 335 335 339 342 342 340 338 338 338 337 332 331 333 334 333 333 333 333 335 336 335 336
346 345 346 348 349 349 348 348 348 348 347 347 346 346 344 337 328 327 332 339 340 336 334 330 330 332 332 333 337 338 337 331 331 333 334 333 334 335 338 339 338 341 342
344 347 349 349 350 350 349 350 350 350 349 349 348 348 347 348 347 345 339 331 330 330 330 330 329 330 331 332 333 336 337 332 333 334 335 336 338 337 339 341 342 344 347
324 334 343 345 347 351 353 350 350 351 352 351 351 352 351 351 350 349 349 348 347 341 334 331 331 332 333 333 331 332 333 334 337 338 337 338 338 337 337 339 343 346 347
321 323 324 336 346 346 350 353 350 350 352 352 351 352 351 351 352 352 352 350 349 348 343 339 337 336 336 335 335 335 333 334 338 340 340 337 336 335 336 338 345 346 346
323 323 323 324 333 347 345 348 351 351 351 351 352 352 351 350 351 353 353 352 349 348 347 346 343 340 339 340 340 340 334 335 338 341 341 337 337 338 340 338 344 346 345
320 319 323 321 322 331 346 348 346 347 347 350 351 352 353 351 352 353 354 354 353 351 349 348 348 347 345 343 343 341 336 335 338 342 342 340 342 343 343 342 343 346 345
319 318 318 320 322 322 331 347 352 350 349 351 352 353 352 353 354 354 354 354 354 353 352 351 349 346 345 344 342 337 334 337 339 340 343 344 346 346 344 344 344 345 345
318 318 318 318 320 322 322 330 349 353 353 350 350 352 352 353 354 355 354 355 355 355 354 354 353 351 348 343 341 337 334 335 338 343 346 347 350 354 354 353 349 347 345
318 318 318 318 321 322 325 326 343 349 352 355 348 354 354 351 354 354 356 357 356 355 356 356 356 354 351 347 343 341 340 341 347 352 352 352 354 355 357 355 354 349 345
316 318 318 318 321 323 327 330 337 347 352 357 354 354 354 356 355 354 357 357 357 357 357 356 356 356 356 356 353 352 350 351 352 354 356 355 356 359 355 353 351 350 356
316 316 316 318 319 322 326 332 334 344 349 353 357 355 356 357 355 353 354 357 358 358 355 355 354 354 356 355 357 356 356 357 358 357 356 355 358 359 357 358 357 357 354
315 315 316 317 319 320 324 330 334 336 347 350 352 355 354 354 354 354 352 351 353 354 355 354 356 355 354 354 355 356 356 356 355 355 355 354 354 355 354 353 352 352 352
314 315 315 317 319 321 323 329 333 334 341 346 351 354 353 354 353 353 353 353 353 354 354 355 356 355 353 352 353 354 353 353 353 353 352 353 352 352 352 350 351 351 349
313 314 314 317 321 323 326 329 332 335 337 343 349 351 352 353 353 353 354 354 352 352 354 354 353 351 350 352 352 352 351 351 351 351 351 350 346 346 347 346 345 344 343
312 313 314 317 321 324 326 328 330 333 335 339 343 345 345 347 349 351 352 351 350 346 345 345 342 335 335 345 348 347 347 348 347 345 343 340 340 339 338 338 337 337 336
309 311 314 316 319 322 325 326 328 330 333 335 336 339 340 343 343 344 345 344 342 343 342 340 333 334 334 342 344 343 341 337 337 339 340 340 340 340 340 341 341 341 343
309 311 312 314 314 318 320 320 321 322 326 328 330 332 333 334 333 331 329 328 326 329 329 330 332 329 326 329 333 332 333 336 337 336 334 334 337 337 335 335 337 336 338
306 307 309 310 310 312 313 314 314 314 316 317 319 321 322 323 326 325 322 322 323 323 326 325 325 323 323 328 324 328 326 333 331 329 328 327 326 326 326 326 325 325 326

GFSGL_850_thetae_087.txt.gz
Theta_e
344 343 342 342 343 342 339 333 338 341 339 344 344 346 348 347 344 343 341 341 343 342 343 340 341 341 342 342 342 341 340 342 347 347 344 344 343 343 343 342 337 335 339
347 346 343 342 342 343 342 337 333 336 339 342 344 344 345 346 347 343 344 345 344 342 340 340 340 339 338 339 338 338 338 339 342 347 348 345 343 343 343 341 335 333 330
347 347 346 344 342 343 343 342 336 331 334 340 343 344 345 346 346 347 347 348 348 348 346 340 341 342 342 343 343 342 344 339 341 342 346 348 340 340 336 335 334 330 331
346 346 346 347 346 343 343 343 342 336 331 334 341 344 346 346 345 345 347 348 348 348 348 346 337 339 344 344 344 347 347 344 347 345 350 351 349 342 335 341 343 331 331
345 345 346 346 346 345 343 343 343 342 339 330 334 341 346 346 346 346 346 347 347 348 348 346 336 334 334 336 340 344 346 348 352 352 351 349 348 347 344 345 347 347 345
344 344 345 345 346 345 345 344 343 343 342 342 333 330 338 345 344 344 346 345 346 346 346 347 346 346 343 339 337 335 334 336 338 346 346 346 340 337 346 348 345 347 346
343 344 344 344 345 345 345 345 345 344 343 343 343 341 330 333 342 341 344 345 343 341 341 344 345 345 343 342 341 341 340 339 336 334 332 330 332 332 334 332 338 339 341
344 344 345 345 346 346 346 346 346 345 345 344 344 343 343 338 329 336 338 341 343 342 340 337 336 337 338 340 343 341 338 337 337 337 333 329 330 331 332 335 335 334 333
343 343 344 346 347 347 347 347 347 346 346 346 346 345 344 344 343 328 328 337 341 339 338 337 336 334 331 330 334 336 334 333 335 335 335 331 331 333 337 339 337 348 346
341 346 347 344 344 346 348 349 348 348 348 348 347 347 347 346 346 345 339 330 330 331 331 332 333 334 333 332 331 330 332 331 332 334 334 334 335 334 335 337 338 340 348
326 325 330 336 345 348 349 348 352 351 350 349 349 349 349 348 348 347 346 346 345 342 338 335 332 330 330 329 330 330 331 332 333 333 334 335 335 334 334 335 337 341 345
322 322 322 323 328 337 345 344 346 350 351 350 351 351 350 349 350 350 350 349 348 348 348 348 346 345 340 337 334 333 333 336 334 335 339 334 337 336 334 337 339 341 340
320 320 320 318 320 322 329 329 346 345 352 351 351 349 350 350 351 351 351 351 351 351 350 348 347 345 344 342 339 337 337 339 340 339 339 334 334 338 338 339 341 341 339
318 319 318 318 319 320 320 325 330 334 346 351 353 353 349 350 350 350 349 351 352 353 353 351 347 345 345 345 346 343 342 341 341 341 342 340 337 339 339 340 343 346 345
318 317 318 318 318 320 322 321 323 325 338 349 348 353 352 351 349 350 350 350 352 353 354 353 352 350 347 345 344 345 345 345 345 343 341 338 338 338 340 343 345 348 349
317 316 317 318 318 320 322 325 320 321 326 330 346 349 351 352 353 353 353 353 354 354 354 354 354 353 352 351 349 347 343 343 344 344 341 342 341 343 344 346 349 353 353
317 315 315 316 317 317 319 320 319 320 321 323 332 348 349 349 351 352 352 351 352 354 354 354 355 354 354 354 353 352 350 346 341 340 342 341 343 347 350 351 353 355 358
315 315 316 315 316 317 317 319 323 320 321 323 323 344 347 344 345 352 353 350 354 355 355 355 354 354 355 355 355 354 355 354 353 351 351 351 352 353 354 354 355 358 356
315 315 315 315 316 316 317 318 321 320 324 325 324 341 346 347 346 350 354 356 356 355 355 356 356 355 355 355 354 354 355 358 356 356 356 356 355 355 354 354 357 358 356
313 314 314 315 316 316 317 317 318 319 323 328 334 341 347 343 346 348 352 355 355 356 356 354 356 357 354 355 355 353 354 353 354 355 356 356 357 357 355 354 356 357 356
309 312 313 313 315 316 316 318 319 318 322 327 332 336 343 346 343 348 350 352 354 355 354 352 351 352 352 353 354 354 353 355 353 353 356 353 352 351 352 353 352 355 356
308 311 311 312 312 314 315 317 319 320 324 328 331 335 340 344 346 344 346 350 351 352 349 349 349 350 349 352 351 349 348 348 348 348 348 349 351 351 352 352 352 352 349
306 309 310 311 311 313 315 317 319 323 325 328 331 333 337 339 345 348 348 348 349 349 349 347 346 347 348 340 343 341 339 337 341 341 344 347 348 347 347 345 343 344 343
304 306 307 309 310 313 317 321 322 323 326 326 330 330 333 336 338 341 343 344 346 346 345 343 342 340 339 337 334 335 335 334 338 342 345 345 344 342 340 339 338 338 339
301 303 305 308 311 314 316 318 319 320 323 323 326 327 329 332 332 335 335 338 338 336 333 332 334 333 332 332 332 333 333 336 339 340 339 338 338 339 337 334 335 336 335
298 299 301 304 307 311 314 314 312 311 312 313 316 319 320 323 322 323 322 324 325 324 325 325 325 325 325 327 328 330 332 332 333 331 332 333 331 330 329 328 328 328 327

GFSGL_850_thetae_093.txt.gz
Theta_e
358 357 356 356 357 356 355 354 347 346 351 352 353 350 353 352 354 350 349 353 350 350 350 352 353 347 352 349 347 346 346 347 346 345 348 349 355 351 353 337 337 345 348
357 357 357 357 356 357 357 355 351 344 343 350 353 354 356 354 352 351 352 350 353 353 352 352 351 350 348 345 348 349 349 350 351 348 348 348 349 351 352 350 351 350 350
354 356 357 357 357 357 356 356 354 348 343 345 351 352 353 353 354 356 352 350 352 351 352 351 352 352 352 350 350 349 349 351 351 352 350 350 349 349 351 352 351 350 350
353 354 356 357 358 357 357 356 356 353 349 343 340 348 351 352 353 354 354 351 352 351 352 352 351 351 351 352 351 351 349 349 350 350 350 349 349 349 350 351 350 346 347
351 352 354 356 357 358 358 358 357 356 354 350 345 342 346 351 352 352 351 353 352 352 352 353 351 349 351 351 351 351 351 351 351 350 349 349 349 351 351 351 347 346 347
350 351 352 353 354 355 357 358 358 357 355 354 352 347 345 346 346 350 352 352 352 353 353 354 352 354 352 344 335 332 348 353 344 347 345 344 344 345 344 346 347 346 346
349 350 350 350 351 352 354 355 355 355 356 355 354 354 350 344 343 343 347 350 353 353 352 352 354 351 350 348 342 341 341 336 335 335 338 335 335 334 338 339 345 348 347
344 348 349 350 350 350 351 353 353 354 354 355 355 354 353 352 347 344 340 344 348 348 352 353 351 349 351 355 355 355 353 345 339 338 340 336 336 333 337 345 344 345 349
331 338 342 346 347 350 350 351 351 351 352 353 354 355 354 353 353 350 347 344 345 338 336 346 351 354 351 344 352 355 353 352 349 350 348 345 344 344 343 344 343 345 342
328 325 325 330 339 343 345 348 352 351 352 352 352 352 353 353 354 353 350 349 348 347 346 336 333 345 346 349 348 345 344 338 340 343 346 347 347 346 347 346 341 345 345
325 325 325 323 323 328 338 345 346 347 349 352 352 353 352 352 354 352 353 351 350 349 349 348 344 339 337 337 340 342 339 338 343 343 344 346 345 345 347 349 349 348 345
325 324 322 315 321 323 321 334 337 342 345 347 349 351 353 354 352 353 354 354 350 350 350 349 348 345 340 339 340 340 341 341 344 347 346 345 343 342 343 345 346 347 349
319 325 321 317 312 317 320 321 333 335 342 343 349 350 350 351 350 352 352 352 351 352 350 349 350 350 349 347 346 345 345 344 344 344 347 347 346 342 341 343 344 346 349
320 323 326 323 322 313 318 325 326 332 336 337 337 342 344 352 352 350 353 355 355 351 350 350 349 349 349 350 351 351 350 350 350 350 349 348 348 345 343 345 346 346 347
320 321 323 324 322 321 318 320 322 324 327 328 333 332 334 336 335 336 349 352 355 354 353 353 351 351 349 349 350 351 353 353 352 350 351 351 350 347 345 346 346 347 346
320 320 321 322 322 321 319 319 319 316 317 318 320 324 322 323 323 323 324 328 344 353 354 354 353 353 354 354 353 353 354 355 353 354 353 351 351 350 349 349 349 349 347
316 316 319 320 320 320 320 318 318 319 321 323 323 323 322 322 323 322 322 324 326 338 347 352 354 353 352 353 356 356 356 355 355 353 352 354 353 353 352 351 350 351 349
311 313 314 316 317 318 319 319 319 319 320 321 323 324 327 327 325 321 322 323 325 331 346 349 349 350 351 352 354 355 356 359 358 356 354 354 354 353 351 350 350 349 348
308 310 312 314 317 317 318 319 319 319 319 319 321 323 325 328 328 324 323 326 325 329 341 346 347 348 350 349 352 355 354 355 356 355 355 356 355 355 353 351 348 348 349
305 308 309 311 313 315 315 316 318 319 319 320 321 322 323 325 323 318 318 321 325 328 339 344 342 345 347 343 347 348 352 355 355 355 356 355 355 355 354 353 354 355 355
303 304 306 307 310 312 315 315 316 317 319 319 321 321 322 322 318 317 317 318 322 328 332 342 343 344 349 346 351 352 353 354 355 355 351 356 355 354 353 353 353 354 354
301 302 303 304 306 309 311 313 315 316 317 318 320 321 320 319 315 316 317 318 321 330 333 339 342 340 340 349 351 349 345 345 347 346 341 347 349 347 343 344 350 353 353
299 299 301 301 302 303 306 309 310 312 314 316 318 317 316 316 316 317 319 320 323 327 337 339 342 341 340 341 345 344 343 342 345 344 342 339 340 342 338 338 339 346 346
297 297 298 298 299 300 301 303 305 307 309 311 313 314 315 314 317 319 321 324 326 329 333 336 338 343 343 343 342 341 339 338 345 346 345 343 344 341 340 342 343 343 344
295 295 295 296 297 298 299 301 302 304 305 307 309 311 312 314 316 320 323 325 327 332 333 334 335 341 342 341 340 339 338 338 340 342 344 343 339 337 338 340 341 341 339
294 294 294 295 295 296 297 298 299 302 303 305 307 309 311 312 314 318 322 325 327 327 329 325 324 336 335 334 331 329 330 332 336 335 334 334 334 336 336 334 334 333 332

GFSGL_850_thetae_096.txt.gz
Theta_e
351 353 353 350 347 344 349 347 342 346 349 349 340 351 350 347 347 345 348 352 348 343 348 349 349 341 342 352 351 350 346 345 347 346 349 349 348 348 345 348 348 338 342
356 358 358 355 354 355 347 349 347 343 341 348 349 349 351 350 348 349 341 351 352 348 344 346 350 351 341 343 348 349 349 350 350 347 348 345 339 347 349 352 349 347 348
359 356 355 357 356 356 356 353 354 350 346 338 333 339 350 350 352 351 349 343 350 351 346 347 348 347 349 347 348 348 346 349 350 351 352 353 349 348 347 350 349 352 346
353 354 357 355 356 356 356 356 355 355 353 348 343 334 340 339 346 349 353 350 345 348 352 351 351 351 350 348 345 345 346 348 347 349 349 350 351 348 351 352 353 351 343
349 346 353 355 353 354 357 357 356 355 354 352 349 345 340 340 349 348 349 354 352 348 349 353 352 348 347 350 351 348 350 351 352 350 353 354 351 352 350 348 347 345 346
349 350 351 351 353 353 354 355 357 356 356 355 354 349 346 345 347 348 353 349 349 353 351 345 349 353 354 352 351 346 337 351 352 350 344 340 342 344 343 341 340 338 330
347 349 349 350 350 352 353 353 354 356 356 355 355 354 352 348 346 346 346 351 351 350 351 352 350 350 350 350 350 346 340 334 333 332 333 330 331 332 334 334 334 335 333
340 344 347 349 350 350 351 352 353 353 354 355 355 356 355 354 351 347 345 346 348 348 352 353 351 350 350 352 354 355 354 353 347 344 341 336 339 342 345 345 343 342 334
330 333 337 341 346 348 349 349 350 352 353 352 353 354 355 355 355 354 352 347 343 344 343 342 348 351 348 348 347 351 354 355 355 349 348 346 345 348 349 348 346 346 343
326 327 325 326 326 333 340 344 348 350 351 351 351 353 353 354 355 355 354 353 353 350 345 343 343 339 334 347 356 351 344 340 344 347 346 342 342 341 342 348 346 345 346
323 326 325 321 319 324 325 328 343 344 346 350 351 352 353 352 353 352 351 353 354 353 352 351 349 348 347 347 340 336 339 331 334 336 337 341 339 337 340 342 342 345 347
323 320 325 323 320 317 318 321 321 331 339 345 346 347 348 350 351 353 353 354 354 353 353 352 352 353 351 350 349 346 342 339 340 343 345 346 349 347 350 349 346 345 345
319 321 320 326 324 320 318 316 322 329 333 336 339 340 344 346 348 349 350 352 352 352 351 352 353 351 351 352 352 350 345 343 341 342 343 342 343 345 346 345 343 341 339
317 319 321 321 325 325 321 322 320 323 327 330 333 337 338 343 338 340 350 351 351 352 354 354 352 351 350 349 349 350 350 350 348 344 343 345 347 348 349 350 348 346 344
316 318 320 321 322 324 325 322 322 321 321 319 320 323 327 333 334 333 335 336 334 343 349 352 352 351 350 350 349 349 349 349 350 350 350 350 350 351 351 351 350 348 348
313 316 318 320 321 322 323 323 322 320 320 320 319 319 318 319 321 323 321 323 323 325 326 331 343 348 351 350 351 350 350 352 352 352 352 352 352 353 350 351 352 349 348
310 312 314 314 315 320 320 321 322 322 321 318 319 322 322 323 324 324 323 322 323 322 321 322 326 333 343 349 352 352 355 355 355 355 354 353 355 355 352 352 349 352 351
306 308 310 311 313 314 315 317 319 319 320 321 320 320 322 322 323 324 326 325 324 322 322 322 324 326 338 350 352 352 349 349 353 355 354 350 337 348 354 354 355 354 352
305 306 306 307 310 312 313 314 316 318 319 320 320 320 320 322 323 325 327 326 323 323 320 323 326 330 335 344 348 349 348 349 351 350 350 352 353 352 351 350 351 351 351
304 303 304 305 306 308 310 312 313 315 317 317 318 320 320 321 322 326 327 325 317 314 316 318 321 328 337 342 345 344 343 347 349 348 347 348 351 353 353 352 352 351 350
302 302 302 302 304 305 307 309 310 312 314 316 317 318 320 321 322 322 324 323 319 313 314 315 318 322 326 335 345 345 343 344 344 343 342 348 349 349 345 341 339 335 349
300 300 300 300 301 302 303 304 306 307 310 312 315 317 319 320 321 322 321 321 317 315 316 316 317 321 327 331 340 341 345 341 340 342 342 344 346 340 339 337 337 335 335
299 298 298 298 298 299 300 300 302 303 305 307 311 312 314 316 318 318 319 318 315 315 318 319 319 322 327 333 339 342 341 341 341 340 341 341 343 342 339 338 338 338 337
296 296 295 295 295 296 297 297 298 299 300 302 306 309 310 310 310 312 313 313 313 314 317 320 321 324 329 333 339 340 341 341 340 340 340 339 340 343 343 342 341 340 338
296 295 295 294 294 294 294 295 296 298 299 300 302 304 306 307 308 309 310 310 311 314 317 319 321 324 328 333 337 338 336 341 341 340 338 339 341 341 341 341 340 339 339
296 296 295 294 294 293 293 293 294 296 297 298 299 301 302 304 306 307 308 309 311 313 315 318 320 324 325 329 332 334 332 334 338 337 335 336 337 335 335 335 336 336 334

GFSGL_850_thetae_102.txt.gz
Theta_e
340 339 338 338 338 338 342 348 349 346 348 350 349 348 344 343 347 343 344 339 339 337 339 335 333 337 343 342 347 346 344 346 345 343 344 343 345 344 342 343 343 347 348
344 342 341 339 340 340 340 345 347 349 346 349 350 346 345 344 344 344 343 342 346 340 341 338 333 336 342 340 343 346 345 347 345 345 345 347 347 342 348 349 348 348 349
345 345 342 342 342 342 342 343 347 348 346 348 347 346 345 346 343 345 346 343 342 347 348 344 337 337 340 343 339 336 342 346 344 342 339 343 345 340 346 350 348 350 350
339 346 346 345 346 345 344 343 344 345 345 347 344 344 348 344 348 348 346 347 349 345 346 346 346 342 339 340 343 343 343 342 340 336 337 339 341 338 344 352 349 338 338
342 341 342 343 340 346 346 346 347 346 346 347 348 345 342 346 349 350 349 349 347 349 343 343 347 350 348 347 348 349 349 348 346 346 341 340 345 342 343 335 329 330 330
345 340 340 340 338 338 345 346 347 348 349 347 348 350 350 345 343 343 347 351 349 347 346 348 344 342 345 349 351 350 351 351 349 348 345 339 332 331 333 336 336 336 343
346 346 346 343 339 338 339 344 346 349 350 349 349 349 349 351 350 347 342 344 343 344 347 348 348 347 348 347 346 349 348 347 348 351 352 351 349 342 344 339 341 346 345
339 340 341 344 344 343 339 340 340 341 346 347 348 348 349 352 354 354 351 347 346 346 348 349 350 350 349 347 348 349 347 345 350 352 351 348 350 349 347 345 343 342 342
330 330 332 333 335 340 344 345 345 347 345 343 346 348 348 349 350 352 352 350 348 348 347 348 347 347 348 351 351 349 345 341 341 344 346 346 345 345 345 346 344 344 341
326 326 325 325 328 329 328 328 329 334 340 344 347 348 350 350 350 351 352 352 351 350 348 348 347 346 345 346 347 346 344 341 341 342 343 343 343 343 344 348 344 343 340
322 324 324 323 322 321 319 318 319 323 330 333 338 343 343 345 347 349 349 349 349 350 350 350 351 351 351 350 350 350 350 350 349 348 348 348 348 347 344 342 340 341 341
315 317 320 321 322 323 323 322 320 320 327 330 333 336 336 340 342 344 346 347 349 350 350 350 350 351 351 351 351 352 353 352 352 351 350 349 349 349 348 348 346 344 342
310 311 313 314 316 318 320 321 322 322 322 321 325 328 330 332 333 336 338 343 347 348 348 349 349 350 350 351 351 353 352 351 351 352 352 351 351 350 350 350 348 347 346
310 311 313 314 315 316 318 320 321 324 323 322 322 321 320 319 319 319 321 322 326 328 331 338 344 348 350 350 348 348 349 350 349 350 350 350 350 350 350 349 349 348 348
307 308 310 311 313 315 318 319 321 323 322 322 322 322 321 320 320 319 319 320 320 320 322 323 322 322 324 330 331 328 323 326 333 338 344 348 349 349 347 348 350 349 349
304 305 306 307 308 309 309 311 318 320 321 322 322 321 321 320 319 320 320 321 322 322 322 322 322 323 323 323 323 323 323 325 330 338 347 349 349 350 350 350 350 351 351
302 302 302 302 302 303 304 305 307 309 312 317 320 320 320 320 320 321 320 320 321 321 321 320 322 324 324 324 325 324 324 327 338 341 344 346 349 350 351 350 349 349 350
300 300 300 300 301 301 302 302 303 303 304 306 308 309 312 317 319 319 320 321 321 321 321 321 322 325 323 321 323 323 320 320 322 335 344 344 344 346 347 346 347 348 348
299 299 300 300 300 300 300 301 301 301 302 302 303 304 307 309 313 316 317 318 319 319 320 321 324 324 325 323 316 313 314 316 318 321 324 328 340 343 343 344 345 347 347
299 299 299 299 299 299 299 299 300 300 301 301 301 301 302 303 307 311 315 316 318 319 321 325 327 327 326 325 323 322 318 313 313 316 320 326 327 335 341 344 344 345 345
299 298 298 298 298 298 298 298 298 298 299 299 299 300 300 300 301 303 307 311 314 317 321 323 325 325 324 324 322 320 319 319 313 313 316 321 328 327 338 342 342 345 343
299 298 298 298 298 297 297 297 297 297 297 297 297 297 298 299 298 299 301 304 309 312 315 317 319 320 320 319 319 318 318 317 315 313 314 318 325 327 336 339 340 341 343
298 298 298 298 297 297 296 296 295 295 295 296 296 296 295 295 295 298 299 301 303 305 308 311 313 314 316 317 318 316 316 317 315 313 312 315 322 328 335 338 339 339 341
299 299 298 297 297 296 296 295 294 294 293 293 293 292 292 293 294 295 297 299 300 303 305 307 307 309 310 312 314 315 315 313 312 311 312 315 323 327 332 337 338 338 339
300 300 299 297 297 296 296 295 294 294 293 293 292 290 290 292 292 294 295 296 298 300 301 301 303 305 307 309 310 312 313 312 311 311 312 316 324 328 332 335 336 337 338
301 300 299 297 297 296 295 294 294 294 293 293 292 292 291 291 291 292 294 295 296 297 298 299 301 302 304 306 308 309 309 309 310 313 316 318 323 325 330 331 333 334 335

GFSGL_850_thetae_105.txt.gz
Theta_e
345 341 344 346 347 343 346 346 347 348 347 347 349 350 348 346 342 343 341 341 339 337 338 338 337 336 336 339 342 344 345 344 342 342 343 344 344 346 344 344 349 348 348
347 346 343 341 343 344 341 340 345 346 347 345 347 348 349 348 343 345 344 344 343 338 340 339 342 340 334 336 341 341 341 340 344 346 346 346 345 342 343 341 349 348 347
345 346 345 341 341 341 340 341 341 343 345 348 347 349 347 345 345 343 345 345 344 344 347 347 345 344 338 337 340 342 339 336 339 340 339 337 335 335 337 336 342 348 345
343 343 344 343 340 341 341 341 341 343 346 346 347 348 347 346 346 346 346 345 346 344 345 343 346 345 341 339 339 339 342 344 346 345 341 341 339 338 342 342 340 332 330
342 340 339 341 344 343 343 346 343 342 343 346 346 348 349 346 345 345 347 348 348 348 348 349 343 344 346 343 345 347 348 349 350 348 348 348 347 342 337 338 339 336 331
339 339 337 336 337 337 340 345 344 344 344 345 344 345 348 349 350 346 345 343 344 347 347 346 346 347 342 341 345 348 349 348 348 346 348 346 349 349 348 348 346 342 343
339 341 338 343 339 338 339 337 338 342 345 346 347 347 346 346 348 351 348 347 344 340 342 346 344 345 348 348 347 346 345 345 346 347 346 351 352 350 346 348 349 347 344
339 340 341 345 344 342 339 339 337 340 344 345 346 347 348 346 347 347 348 351 350 345 343 344 345 347 348 349 350 351 349 350 349 348 347 347 347 347 346 347 346 345 340
329 330 332 333 337 339 341 343 343 340 340 341 343 342 346 347 346 346 347 347 349 350 349 348 347 346 346 347 347 345 347 347 346 345 344 342 341 341 341 340 339 346 346
327 326 325 327 328 325 324 324 328 330 337 341 344 344 344 346 346 346 346 346 347 348 349 349 348 347 348 346 347 347 346 344 345 344 344 345 346 345 345 347 347 345 344
323 323 324 324 323 323 320 319 320 326 328 333 337 340 341 341 342 343 346 347 348 348 348 349 349 349 350 350 349 349 349 349 350 350 351 350 349 347 346 347 347 348 348
314 316 318 320 321 322 323 322 320 320 325 330 335 332 331 332 332 334 339 342 345 346 347 348 348 348 348 349 349 349 349 349 351 352 351 351 351 351 351 350 349 348 348
309 310 311 313 315 317 319 320 322 322 321 321 323 326 328 326 325 323 322 323 325 334 332 333 339 341 343 348 350 350 349 349 349 347 347 347 348 349 349 350 350 350 350
309 310 311 312 313 315 317 318 319 321 322 322 322 321 321 321 320 319 320 320 321 322 321 322 323 323 323 323 329 342 346 346 345 340 334 336 340 344 347 349 349 348 347
306 307 308 309 310 312 314 316 317 319 319 319 320 321 321 321 321 320 320 320 319 320 321 321 321 321 322 323 323 322 323 326 323 324 326 329 338 345 347 349 350 350 350
304 305 305 305 305 306 307 307 308 311 315 317 318 320 320 320 320 320 320 320 320 319 319 320 321 321 321 321 321 322 324 324 325 326 333 339 341 344 345 346 349 350 350
302 301 301 302 302 302 302 303 303 303 304 306 309 312 313 317 319 319 319 318 318 319 319 319 320 320 320 321 322 322 321 323 324 323 324 331 339 341 343 344 345 347 348
299 300 300 300 300 300 301 301 301 302 302 303 303 303 304 305 306 308 309 313 315 316 318 319 320 320 320 322 322 324 324 317 313 313 314 316 320 323 335 342 343 343 344
299 299 299 299 299 299 300 300 300 300 301 301 302 302 302 302 303 303 303 305 309 313 314 314 316 318 320 323 324 325 325 324 321 319 316 313 313 315 320 323 331 341 343
299 299 299 299 299 299 299 299 300 300 300 300 300 300 301 301 302 302 302 302 302 304 310 313 316 318 320 322 324 325 325 323 323 321 319 319 316 313 313 320 324 331 338
299 299 298 298 299 298 298 298 298 299 299 299 299 299 299 299 299 299 300 300 301 302 302 306 313 315 316 317 318 319 320 322 321 320 319 319 318 316 314 312 320 325 329
299 298 299 299 299 298 298 298 298 298 297 297 298 298 298 298 298 298 298 298 299 299 301 301 302 307 311 312 313 314 314 318 318 318 318 318 318 318 316 314 312 321 327
298 299 299 299 298 298 297 297 297 296 296 296 296 296 296 296 297 297 297 298 297 296 295 297 299 302 305 307 308 309 310 312 313 314 315 316 317 317 317 315 312 312 325
299 300 300 299 298 297 297 296 296 295 295 295 294 294 294 294 294 295 295 296 296 294 295 296 297 299 300 301 302 304 307 309 310 310 312 312 313 314 315 314 311 311 319
301 300 300 300 298 297 297 296 295 295 294 294 293 293 293 293 293 293 293 293 293 293 293 294 296 297 297 298 298 299 301 305 306 307 308 309 310 312 313 311 310 310 322
302 301 300 300 298 297 296 296 295 295 295 294 294 293 293 293 293 292 292 292 291 292 293 294 295 296 297 297 298 299 301 303 304 305 307 308 309 310 310 311 313 315 321

GFSGL_850_thetae_108.txt.gz
Theta_e
345 345 344 342 342 344 345 346 345 345 346 347 348 349 348 346 345 342 341 343 341 340 339 338 337 338 338 337 337 341 342 343 343 344 344 344 345 344 344 338 339 346 347
342 344 344 340 343 344 343 342 342 344 345 344 344 346 346 347 348 345 343 343 341 342 338 339 339 339 343 340 338 339 342 342 339 338 340 342 342 337 334 337 338 338 348
343 343 345 344 341 340 340 340 339 340 341 343 343 344 346 347 346 345 343 345 343 343 341 345 346 345 344 343 341 341 341 340 342 345 345 342 338 338 336 336 336 338 336
344 343 344 344 343 341 340 339 339 340 341 341 343 346 348 347 347 345 346 344 345 345 343 342 344 345 344 346 343 342 345 346 347 349 348 347 346 346 348 347 340 334 329
343 342 342 340 343 343 341 341 341 341 341 341 342 344 344 347 348 345 346 345 346 347 347 347 348 348 344 345 346 346 346 347 348 348 349 348 346 344 347 350 348 344 338
340 341 340 337 336 342 341 338 338 342 345 344 343 342 343 344 346 349 350 348 345 346 344 346 345 346 346 346 344 343 343 345 347 346 347 348 346 346 352 350 347 344 342
339 336 333 336 338 337 337 338 338 339 342 344 344 344 346 346 345 345 345 348 350 347 345 343 339 338 338 341 344 347 347 347 347 347 346 345 346 344 346 346 344 342 341
339 339 340 338 340 341 341 340 337 338 338 339 345 344 345 346 346 346 346 346 346 347 347 348 346 343 342 340 344 347 347 347 348 348 350 349 347 346 345 344 341 341 339
339 339 338 339 340 340 340 340 338 341 340 339 342 343 341 343 344 346 346 346 346 346 346 347 348 348 347 346 346 345 344 344 343 343 345 347 347 345 343 346 345 346 346
328 330 332 333 337 340 341 341 340 339 336 336 340 337 340 341 342 343 344 345 346 346 346 347 347 347 348 348 347 347 347 346 347 346 345 345 345 346 349 349 348 348 348
323 325 325 325 325 324 322 320 323 327 329 333 336 338 338 339 338 341 342 342 343 345 346 346 347 347 348 348 348 348 349 348 348 348 349 349 350 350 351 350 350 350 351
313 315 319 321 322 323 323 322 321 322 330 333 332 331 331 332 332 333 335 338 339 340 341 343 340 342 340 341 345 347 347 347 348 349 349 349 350 349 348 345 346 348 349
309 310 311 312 314 317 320 321 322 323 322 321 324 326 327 326 325 326 328 327 327 331 332 330 333 330 324 325 327 333 341 346 346 347 348 348 346 341 339 339 345 346 348
307 308 310 311 312 313 314 315 317 320 321 322 322 321 321 321 321 321 321 321 320 320 321 320 321 321 321 322 322 323 323 323 328 335 336 335 332 325 326 337 344 346 348
306 306 307 308 309 311 312 313 314 315 316 316 317 318 318 318 318 319 320 320 321 320 320 320 320 320 320 321 321 320 321 323 324 324 325 325 325 329 334 341 343 345 346
304 304 304 304 305 305 305 305 306 308 309 311 313 314 316 317 317 318 318 318 318 318 317 316 316 317 319 319 320 320 320 321 321 322 324 325 324 324 327 335 341 344 346
302 301 301 301 301 301 302 302 302 302 302 302 303 304 304 306 307 307 307 307 308 308 309 310 312 314 316 317 319 320 320 321 323 323 319 314 314 314 316 319 323 331 338
300 300 300 300 300 300 300 301 301 301 301 301 301 301 302 302 302 302 303 303 303 304 305 307 308 310 312 314 318 320 322 323 323 324 324 322 320 318 315 313 313 317 322
299 299 299 299 299 300 300 300 300 300 301 301 301 301 301 301 302 302 302 302 302 302 302 302 303 308 311 312 315 317 318 320 321 323 324 323 322 321 320 319 317 314 312
299 299 299 299 299 299 299 299 299 299 300 300 300 300 300 301 301 300 300 300 300 300 301 301 301 301 304 309 313 314 314 314 315 317 318 320 321 320 320 320 319 319 318
299 299 299 299 299 299 299 299 299 299 299 299 299 298 298 298 298 298 298 298 298 298 298 298 299 299 300 301 304 308 311 312 313 313 314 315 317 317 317 318 319 319 319
299 299 299 299 299 298 298 298 298 298 298 298 297 297 297 297 297 297 297 296 296 297 297 297 297 297 297 298 299 303 305 305 306 308 310 311 312 313 313 314 315 316 316
299 299 300 299 299 298 298 297 297 297 297 296 296 296 296 296 296 295 295 295 296 296 296 296 296 295 295 296 298 299 300 300 300 302 304 306 308 310 311 310 312 313 313
298 299 300 300 299 298 298 297 297 297 297 296 296 296 296 295 295 294 294 294 294 295 295 295 295 295 295 294 295 296 297 297 297 297 297 298 300 303 307 308 309 311 310
298 300 300 300 300 298 298 298 297 296 296 296 296 296 296 295 295 294 294 294 294 294 294 294 294 295 294 294 294 295 296 296 296 297 297 298 299 301 302 305 307 308 309
299 301 301 301 300 298 298 298 298 297 296 296 296 296 295 295 294 294 293 293 293 293 293 293 293 293 293 294 294 295 297 298 299 299 300 300 300 302 303 304 305 307 308

GFSGL_850_thetae_111.txt.gz
Theta_e
346 346 345 344 343 341 344 344 344 345 345 346 343 344 346 344 343 342 341 342 342 342 342 339 339 337 335 338 338 337 338 341 347 346 342 339 339 340 339 335 337 339 343
344 346 345 343 343 341 342 343 344 345 344 345 344 345 346 347 348 346 343 342 342 341 341 338 337 338 337 338 341 339 339 342 343 346 344 342 338 339 337 336 336 341 336
343 342 342 342 343 340 342 342 341 340 343 343 343 342 344 345 347 346 344 343 344 343 343 341 341 344 341 343 344 343 341 342 342 344 349 347 345 343 345 345 342 338 337
342 341 343 342 346 344 341 339 340 338 337 339 340 342 343 344 344 346 345 344 343 343 343 343 343 344 344 344 344 343 343 344 347 348 352 352 352 348 345 347 350 349 340
339 342 343 344 344 343 342 340 340 340 340 340 341 342 344 344 345 346 346 346 345 344 345 344 344 345 346 347 344 344 343 344 344 346 348 349 350 348 347 350 352 350 346
340 342 341 339 341 343 342 341 341 341 342 344 342 341 341 343 343 346 348 349 347 345 344 345 343 344 344 346 346 344 343 345 344 347 346 348 346 348 349 351 350 349 347
339 339 339 339 340 340 341 340 338 338 339 343 345 345 344 343 344 343 342 343 344 347 347 344 344 346 341 341 341 341 343 345 346 346 347 346 347 348 347 347 351 348 348
341 339 335 338 341 340 338 339 339 338 338 341 344 345 345 345 345 345 346 346 346 346 346 346 346 346 347 345 344 343 342 345 346 347 347 347 345 345 345 348 346 343 343
338 337 338 337 338 339 340 340 339 339 340 339 338 341 342 341 341 341 342 344 346 346 346 347 346 347 346 346 347 347 346 345 345 344 345 345 345 345 345 345 346 350 351
337 337 337 336 336 335 332 333 334 333 335 338 340 341 341 340 340 339 340 341 344 345 345 346 346 346 345 345 346 347 348 348 348 347 347 347 346 347 347 348 349 351 352
329 328 329 329 328 326 325 322 326 331 334 335 337 335 333 334 336 338 340 341 341 341 341 341 342 343 344 344 344 343 343 345 347 347 348 348 348 349 349 350 350 350 350
319 322 323 324 325 325 324 323 321 323 330 330 327 326 327 327 325 326 331 333 331 332 327 327 331 333 333 333 335 333 335 338 343 346 347 346 347 347 347 346 345 343 341
310 311 311 313 316 321 322 322 323 322 321 323 326 326 326 325 325 326 329 328 327 324 321 320 320 321 321 322 323 324 325 324 324 326 329 336 337 339 338 336 335 338 339
307 308 309 310 310 311 313 317 319 320 321 322 322 321 321 321 322 322 321 321 321 320 320 320 320 320 320 319 320 321 321 321 322 323 324 324 325 327 326 330 340 345 345
306 306 307 308 309 311 311 312 313 314 314 315 316 316 316 317 317 316 316 315 315 315 315 315 315 316 316 317 318 319 321 328 322 321 321 322 323 324 324 325 331 336 339
305 305 305 305 306 306 306 307 307 308 309 310 311 311 311 310 310 309 308 308 307 307 307 307 307 307 308 310 311 317 325 321 320 321 322 322 322 320 316 314 314 315 324
303 303 302 302 302 302 302 302 302 302 302 302 302 302 303 303 303 303 303 303 303 303 303 304 305 306 306 309 312 312 314 315 316 318 321 322 323 323 323 322 322 320 321
301 300 300 300 300 300 300 300 300 300 300 300 300 301 301 301 301 302 302 302 302 302 302 302 303 303 304 308 311 310 309 310 313 316 317 318 320 322 322 321 321 322 322
299 299 299 299 299 300 300 300 300 300 300 300 300 300 300 300 301 301 301 301 301 301 301 301 301 301 301 301 302 303 310 312 311 311 312 313 314 314 316 318 319 320 320
299 299 299 299 299 299 299 299 299 299 299 299 299 300 300 300 300 300 300 300 300 300 300 300 300 300 300 300 301 301 301 302 304 309 311 310 310 312 312 313 315 315 315
299 299 299 299 299 299 298 298 298 298 298 298 298 298 298 298 298 298 298 298 298 298 298 298 298 298 298 298 299 299 300 300 301 305 307 306 308 307 308 308 310 312 313
299 299 298 299 299 298 298 298 298 298 298 297 297 297 297 297 297 296 296 296 296 296 296 296 296 296 296 296 296 296 296 298 299 301 301 301 301 301 302 303 305 306 308
299 299 299 299 299 299 298 298 298 298 297 297 297 297 296 297 296 296 296 295 295 295 295 295 294 294 294 295 295 295 295 296 297 299 299 298 298 298 299 300 300 301 301
299 298 299 300 299 298 298 298 298 297 297 297 297 297 296 296 296 296 296 295 295 294 294 294 294 294 293 293 293 292 292 293 294 294 295 296 296 296 296 297 297 298 299
299 298 299 300 300 298 298 298 298 297 297 297 297 297 296 296 296 295 295 295 294 294 293 293 293 293 293 293 294 294 294 295 295 295 295 296 296 297 298 298 298 299 300
299 298 299 300 300 300 298 298 299 298 297 296 296 296 296 296 296 295 295 294 294 294 293 293 293 293 293 294 294 294 295 295 296 297 297 297 298 299 299 299 300 301 301

GFSGL_850_thetae_114.txt.gz
Theta_e
349 346 349 350 348 340 345 343 345 345 343 344 345 350 349 347 345 345 346 350 346 350 350 351 348 343 347 347 347 347 347 347 347 346 346 346 349 352 350 349 346 345 343
351 351 348 347 350 349 349 349 344 344 344 345 345 344 346 346 347 345 349 349 350 350 350 350 350 347 347 344 346 347 346 348 348 348 346 347 350 351 350 352 350 346 346
350 350 347 350 350 349 350 347 345 343 344 343 344 343 343 345 344 346 348 350 350 351 351 351 351 349 351 348 350 349 347 346 346 346 347 346 347 348 349 349 349 349 346
349 350 350 350 350 350 349 348 343 341 340 342 343 343 344 344 344 346 348 349 350 351 350 350 350 350 351 351 351 351 348 350 348 350 348 348 347 348 349 347 345 345 347
344 344 346 345 347 347 348 347 346 346 347 349 347 344 347 350 349 343 347 349 346 350 350 350 350 348 346 346 349 350 349 349 347 346 345 345 346 348 346 345 345 346 346
340 341 341 342 346 346 347 346 342 344 346 346 349 351 352 350 349 345 345 351 351 351 351 351 347 345 343 343 343 346 348 348 348 348 345 345 347 350 347 348 348 348 347
341 341 342 342 343 345 344 343 343 343 346 345 347 350 350 349 344 343 343 343 350 353 352 351 352 348 350 351 349 344 341 340 342 345 347 350 349 351 352 351 349 349 349
339 340 340 341 340 341 342 342 342 339 344 345 344 346 347 347 344 345 345 345 350 352 353 351 350 351 349 346 348 350 352 352 352 349 349 349 350 352 351 349 348 351 352
342 341 337 337 336 336 339 340 341 341 340 343 342 344 344 344 343 345 345 349 350 352 348 346 347 347 346 345 346 346 350 351 352 352 351 347 345 344 345 346 349 350 350
336 338 337 335 338 338 338 338 339 339 340 340 340 340 341 342 341 340 341 342 344 344 345 346 345 345 345 345 345 345 345 348 345 345 347 348 348 347 347 347 347 352 352
334 334 334 330 331 329 328 330 332 334 336 337 339 339 338 337 338 338 339 339 340 336 337 337 338 340 340 339 340 338 336 337 338 341 344 346 348 349 352 352 349 349 349
325 326 327 327 325 324 323 324 328 331 332 332 330 326 328 329 329 330 330 330 328 327 326 326 326 327 329 330 329 327 327 327 326 325 326 332 337 339 343 343 342 340 343
316 319 321 322 323 323 323 322 322 324 325 325 324 325 324 328 327 325 323 323 323 322 322 321 321 320 322 323 323 322 322 332 336 336 337 337 337 337 339 340 340 343 342
309 310 311 312 314 317 319 320 321 322 322 321 321 321 321 321 321 321 321 321 320 319 320 320 320 320 322 321 324 327 329 331 333 333 332 332 332 332 331 331 332 335 335
307 308 309 310 312 311 313 314 313 315 318 317 318 318 319 318 317 315 314 312 312 311 310 311 317 318 319 320 322 323 324 329 331 330 328 328 327 327 327 327 326 325 326
306 309 309 309 309 310 309 309 310 310 311 312 312 312 311 310 308 306 306 305 304 304 304 305 310 314 315 318 319 321 323 322 322 321 322 324 324 325 326 326 326 327 327
308 305 305 306 307 307 308 308 305 303 303 303 303 303 303 302 303 303 303 303 303 303 308 309 310 310 309 307 311 315 316 317 316 317 318 319 320 320 320 322 323 324 324
305 303 305 305 305 305 306 306 306 306 306 304 301 301 301 301 302 302 302 302 306 305 306 306 306 306 307 307 308 309 310 306 308 312 312 315 316 316 317 317 318 319 321
303 303 304 304 303 303 304 304 304 304 304 304 303 301 300 300 301 301 301 303 303 303 303 303 303 304 304 305 305 305 305 306 305 307 309 309 311 313 314 315 316 316 315
304 302 302 303 301 303 303 303 303 303 303 303 302 300 300 302 302 302 301 300 301 301 300 300 300 300 300 300 301 303 304 304 305 306 306 307 307 306 307 308 309 310 310
303 300 301 303 303 302 302 302 302 302 302 302 301 299 299 300 301 301 300 300 299 298 298 298 298 298 298 298 298 299 300 301 301 301 302 304 305 304 304 304 303 303 304
303 302 301 302 302 302 302 301 301 301 301 301 301 300 298 300 300 300 299 298 298 297 297 297 297 297 297 297 297 297 297 296 296 296 297 297 298 300 300 300 301 302 302
303 303 302 302 302 301 300 301 301 301 301 301 300 300 300 300 299 298 297 297 297 296 296 295 295 295 295 295 295 295 295 295 295 296 296 295 295 295 297 299 299 300 300
302 302 302 302 302 302 302 301 300 299 300 300 301 300 300 300 299 299 298 296 296 296 295 295 294 294 294 294 294 294 294 294 294 294 294 295 295 296 295 295 297 298 298
303 302 302 302 302 301 301 301 301 301 300 300 300 300 300 300 299 299 298 296 296 296 295 295 295 294 294 294 294 294 294 294 294 295 296 297 298 299 299 299 299 300 300
305 303 302 302 303 303 302 302 301 301 301 300 300 301 300 300 299 299 298 296 296 295 295 294 294 294 294 294 294 294 294 294 294 297 298 299 300 301 301 301 301 301 301

GFSGL_850_thetae_117.txt.gz
Theta_e
349 350 350 349 349 350 351 348 352 351 349 355 353 352 352 352 351 350 349 353 353 351 350 353 353 352 351 348 349 347 346 346 347 346 349 346 345 349 351 351 350 349 346
351 353 352 350 349 349 349 352 352 347 348 352 352 352 352 352 353 352 350 349 351 350 350 350 351 350 350 350 348 346 346 346 346 345 346 347 347 348 347 352 349 348 347
353 353 353 352 351 349 350 350 353 350 346 347 351 351 351 353 354 354 353 353 352 351 350 350 349 350 349 350 351 352 348 349 351 348 348 346 348 348 351 348 349 347 347
352 351 351 353 352 350 348 350 351 353 354 350 352 350 353 353 354 353 354 354 353 351 352 351 351 351 350 352 351 352 351 351 349 349 347 347 346 345 350 348 344 345 348
344 346 351 351 351 350 351 351 350 351 352 352 352 353 352 352 351 352 351 353 354 353 351 351 351 350 350 351 351 351 351 351 349 347 345 344 344 350 347 348 348 347 346
343 345 349 348 348 348 347 347 349 350 351 352 352 352 353 351 350 349 350 351 352 353 353 352 351 351 347 343 343 342 342 344 347 350 349 349 347 349 350 349 350 347 348
342 341 342 343 344 343 344 347 348 347 347 348 350 350 350 349 347 348 348 346 351 352 351 349 353 348 349 351 352 351 351 346 343 345 346 344 344 346 349 350 352 351 351
339 341 342 341 340 340 343 346 347 347 347 347 347 348 346 345 344 345 346 345 343 350 352 352 352 351 348 346 346 348 353 352 351 351 352 352 351 351 352 352 349 347 351
341 341 340 340 341 340 340 342 343 342 344 345 345 345 342 343 345 345 344 347 347 348 348 345 346 346 346 345 345 347 350 351 352 351 350 350 349 350 349 348 348 352 351
340 340 340 339 338 336 335 335 339 341 343 341 340 340 340 341 342 342 343 347 347 346 344 343 343 343 343 343 343 344 344 349 343 344 341 340 343 347 352 354 351 351 351
337 337 336 337 337 337 338 337 338 339 340 339 340 340 340 340 340 340 340 338 339 337 339 339 338 338 339 339 338 337 335 333 334 334 336 336 338 342 346 348 349 349 347
333 331 333 332 330 331 332 335 338 335 335 336 335 331 333 332 332 335 335 332 333 332 330 329 330 328 328 327 326 326 327 327 333 339 340 340 340 341 341 340 337 339 339
327 325 326 327 328 326 325 327 331 332 333 333 332 330 328 324 328 327 324 325 326 324 323 322 322 322 321 322 326 322 324 330 334 335 335 335 335 334 334 334 333 333 335
317 318 319 321 323 325 326 326 327 327 327 328 327 327 325 324 323 322 322 322 321 321 321 319 316 317 320 322 323 326 327 328 330 333 334 332 330 330 330 329 330 330 329
318 318 317 315 318 319 320 320 321 324 324 323 323 322 321 320 319 317 315 313 311 310 308 311 318 320 321 321 322 323 326 328 328 327 325 324 325 325 325 326 327 326 327
316 315 315 315 316 315 313 312 311 311 314 316 315 314 312 312 310 308 306 304 303 303 306 314 312 315 316 313 316 318 319 320 320 319 320 320 320 320 321 321 321 322 323
314 313 311 312 312 313 313 311 307 307 307 307 307 306 305 304 303 302 302 302 303 308 311 311 311 311 311 311 311 310 312 312 307 308 311 312 314 317 318 318 318 319 319
312 310 310 310 310 310 310 311 311 310 309 305 302 302 302 302 302 302 302 308 310 309 309 309 309 309 309 309 309 309 309 309 309 309 308 311 312 312 313 314 315 316 317
309 307 308 308 308 308 308 308 308 309 309 308 306 303 301 301 301 301 301 307 307 307 306 306 306 306 306 306 306 306 306 307 306 308 309 309 309 308 308 308 308 308 308
308 307 307 307 305 306 307 307 307 308 307 307 306 305 304 306 306 306 305 305 305 305 304 304 304 303 302 302 302 302 302 303 304 304 305 305 305 304 304 305 306 306 306
307 305 303 305 306 306 306 306 306 306 306 306 305 300 300 305 305 305 304 304 303 303 302 301 300 300 300 300 299 299 300 300 300 300 300 300 299 300 300 300 301 302 303
306 305 303 305 305 305 305 305 305 305 305 305 304 300 299 304 304 304 303 303 301 300 300 299 299 298 298 298 298 298 298 298 298 298 298 296 296 296 296 298 299 301 302
306 305 305 305 305 305 304 304 304 304 304 304 304 304 303 303 303 302 301 301 300 300 299 298 298 298 297 297 297 296 296 296 296 296 296 296 296 297 297 298 298 298 300
306 305 305 305 305 305 304 304 304 304 304 304 304 304 304 303 303 303 302 301 298 298 298 297 297 296 296 296 295 295 295 295 295 295 295 295 296 297 299 299 300 300 299
308 306 305 305 305 304 305 304 304 303 302 303 303 303 304 303 303 302 302 300 299 298 297 297 296 295 295 295 295 294 294 294 294 294 294 295 297 298 299 300 301 301 301
309 308 307 306 305 305 304 304 304 304 304 303 303 303 303 303 303 302 302 300 299 299 298 297 296 296 295 295 295 294 294 294 294 294 295 295 296 298 299 300 301 301 302

GFSGL_850_thetae_123.txt.gz
Theta_e
334 344 346 344 346 349 349 347 350 348 348 352 351 348 344 349 350 349 344 348 350 349 347 350 350 349 349 342 346 346 345 346 344 341 342 343 341 346 348 347 351 343 347
342 346 344 341 343 343 345 348 344 349 349 350 350 350 346 348 346 347 344 345 350 349 347 344 345 346 345 344 345 345 349 349 348 346 340 346 347 349 349 347 344 349 347
349 350 347 347 348 349 345 343 348 346 344 347 346 348 348 348 349 349 347 346 347 349 349 348 347 347 349 349 349 347 346 345 345 347 346 348 347 350 349 348 346 346 349
348 348 348 347 348 347 348 349 347 349 347 345 346 346 346 347 348 348 347 348 348 345 347 350 350 350 350 350 350 349 347 347 350 347 347 346 341 343 344 343 341 336 335
341 347 346 343 340 348 349 348 349 349 346 346 345 346 345 346 344 344 345 347 348 346 349 349 350 351 348 347 348 348 347 346 342 341 338 337 341 343 343 343 343 343 342
338 343 347 346 337 337 342 348 347 350 348 348 347 348 347 347 347 346 346 347 347 349 348 346 347 350 346 344 347 346 346 348 348 348 348 349 348 349 348 347 348 347 346
346 346 344 343 343 344 339 343 344 345 347 347 349 347 349 345 344 344 345 348 347 346 347 349 348 346 344 346 346 345 347 343 341 342 344 345 346 347 347 346 344 345 347
341 340 341 343 344 344 344 345 344 343 342 343 342 344 344 344 342 342 342 344 347 346 345 343 342 341 341 342 343 344 345 345 343 344 345 346 346 345 343 342 345 347 347
342 342 341 340 341 341 341 341 341 340 341 342 342 342 341 342 343 341 341 342 344 344 342 343 343 342 343 343 342 341 342 343 345 343 339 336 337 338 342 343 342 339 339
343 341 341 340 340 340 341 340 340 340 340 343 343 342 339 337 336 340 343 343 342 342 344 343 343 343 341 340 339 339 338 337 336 334 338 340 341 341 340 336 335 335 339
342 341 340 339 339 339 338 336 336 340 340 339 339 339 336 338 339 339 342 344 343 343 344 341 338 333 331 331 329 327 326 325 328 336 336 336 337 336 335 335 334 331 330
339 339 339 338 338 338 337 336 337 339 339 339 338 340 339 338 338 339 340 341 339 338 338 336 335 333 323 322 322 322 322 325 330 332 334 334 334 334 334 333 332 331 330
337 338 339 337 336 337 338 338 337 336 335 335 333 334 334 332 330 332 333 333 335 336 332 329 324 322 320 318 318 320 322 322 325 327 330 332 332 332 332 332 322 319 322
334 334 333 333 331 333 335 335 336 337 336 334 331 329 329 329 327 327 327 326 325 324 322 322 321 317 316 317 320 322 325 325 325 325 326 327 328 328 324 316 313 311 311
325 327 329 329 328 327 328 329 329 332 332 331 330 329 327 328 325 320 320 319 319 318 315 312 311 315 319 321 322 322 322 323 324 324 321 316 310 308 308 308 309 309 311
313 315 317 316 316 317 323 325 325 326 327 327 327 327 325 325 323 317 311 309 307 306 308 309 309 310 313 311 309 312 311 309 308 307 306 305 305 305 306 306 307 306 307
314 316 316 318 316 317 315 313 312 316 315 316 325 325 323 322 315 308 304 303 306 313 313 313 311 310 309 308 307 307 306 305 305 305 304 305 305 305 305 305 305 304 304
315 315 315 314 313 313 313 313 313 313 312 307 306 307 308 306 303 302 303 308 311 311 311 312 311 309 309 307 306 305 304 303 303 303 303 303 303 304 303 302 302 301 301
307 310 310 312 312 313 312 312 312 311 312 311 310 306 301 301 302 308 310 310 309 309 309 309 308 307 305 303 302 301 301 301 301 301 301 301 301 301 301 300 300 300 300
307 306 309 310 309 310 310 310 310 310 310 310 309 308 303 303 303 307 309 308 308 308 307 305 304 302 301 301 301 300 300 300 300 300 300 299 299 298 298 298 298 299 299
315 311 307 308 308 308 308 307 309 309 309 309 309 308 308 307 307 307 306 305 306 305 304 302 301 300 300 300 299 299 299 299 299 299 298 297 297 297 297 297 298 298 298
305 306 306 306 307 306 307 307 307 308 308 308 308 308 308 307 307 306 306 304 303 301 301 300 300 299 299 298 298 298 298 298 297 297 297 297 297 297 297 296 297 298 299
305 308 308 306 304 305 306 306 307 307 307 307 307 306 304 306 306 305 305 304 303 301 300 299 299 298 298 298 298 298 297 297 297 297 297 297 297 296 296 296 297 298 298
307 308 308 307 305 305 306 306 306 306 306 305 305 305 305 304 305 305 304 302 301 299 299 298 297 297 297 297 297 297 297 297 297 297 297 296 296 296 296 296 296 297 298
310 310 309 308 307 306 306 306 305 305 305 305 305 305 305 305 304 304 304 304 303 300 299 298 297 297 296 297 297 297 297 296 296 297 297 297 296 296 295 296 296 297 298
314 312 311 310 308 307 306 306 306 305 306 305 305 305 305 305 305 304 304 303 303 302 300 299 298 296 296 297 296 296 296 296 297 297 297 296 296 296 296 296 296 295 297